Location: Crescent
(42.8242°N, 73.7329°W)
Time: 15:49:14
(UTC+00:00)

Explorer 11/Cluster Stage 4 - Pass Details

Date: 21 February 2026
Orbit: 463 x 1176 km, 28.8° (Epoch: 9 March)

Event Time Altitude Azimuth Distance (km) Brightness Sun altitude
Rises 16:56:36 0° 226° (SW) 3,109 10.1 36.7°
Reaches altitude 10° 17:00:51 10° 194° (SSW) 1,998 9.9 36.8°
Maximum altitude 17:02:20 11° 175° (S) 1,844 9.9 36.8°
Drops below altitude 10° 17:03:45 10° 156° (SSE) 1,878 9.6 36.8°
Sets 17:07:22 0° 121° (ESE) 2,639 9.7 36.8°
